Temp
80 84 82 83 83 83 82 81 82 82 82 82 83 83 83 84 82 83 84 83 84 84 84 84 84 84 84 84 84 84 84 84 84 84 83 83 83 83 83 83 85 89 82
83 85 82 83 84 83 82 81 82 82 81 81 83 83 84 83 83 83 84 84 84 84 84 84 84 84 84 84 84 84 83 83 83 83 84 84 83 83 83 83 83 85 82
85 86 85 82 83 83 83 82 81 81 82 82 83 83 84 83 84 84 84 84 84 84 85 84 84 84 83 82 84 84 83 83 82 82 84 90 89 83 83 82 82 82 81
85 86 86 82 83 83 83 82 82 82 82 83 84 84 83 83 84 84 84 84 84 84 84 84 84 83 83 83 83 82 82 82 81 82 88 89 89 82 82 82 82 82 81
85 86 85 83 83 83 83 83 83 83 82 83 82 84 84 84 84 84 84 84 84 84 84 84 84 84 84 83 83 83 82 81 81 86 86 86 89 83 82 82 82 82 82
85 86 84 83 83 83 83 83 83 83 83 82 84 84 84 84 83 84 84 84 83 84 84 83 84 84 84 84 83 82 81 81 83 87 86 86 87 82 82 81 81 81 81
85 86 86 83 83 83 83 83 83 83 83 84 84 83 83 83 84 84 84 84 84 84 84 84 84 84 84 84 83 82 81 81 87 86 85 86 87 81 81 81 81 81 81
85 86 86 83 83 83 83 83 83 83 84 84 83 84 84 84 84 84 84 84 84 84 84 84 84 84 84 84 83 82 81 81 87 85 86 87 80 81 81 81 81 81 80
85 85 85 86 85 83 83 83 83 83 83 84 83 83 83 84 84 83 83 83 84 84 84 84 84 84 84 84 83 82 81 80 89 87 89 89 79 80 80 80 80 79 80
85 86 85 85 86 86 86 83 83 82 84 84 84 84 83 84 84 83 82 83 83 84 84 84 84 84 84 84 83 82 81 81 90 88 88 87 80 81 81 80 80 79 79
82 84 85 85 84 84 85 85 83 82 83 84 85 84 84 88 88 87 83 83 84 84 84 84 84 84 84 83 83 83 82 90 89 89 90 79 80 81 80 80 80 79 79
81 83 86 86 86 86 87 85 86 85 87 88 86 85 87 86 86 88 86 83 83 83 83 83 83 84 87 93 94 87 93 91 91 90 89 79 80 81 80 80 80 79 79
82 84 84 85 85 87 86 85 87 87 87 86 83 84 84 86 86 89 89 90 89 85 93 91 91 92 90 91 92 93 92 92 94 93 86 79 80 81 80 80 80 79 79
81 82 84 83 83 84 85 85 85 86 85 86 86 82 84 86 85 86 88 87 87 89 87 88 91 89 90 90 90 91 93 94 94 94 89 80 80 80 80 80 80 79 79
80 82 83 83 82 82 82 82 82 84 85 86 85 83 86 86 85 86 86 88 87 89 89 88 88 88 88 91 92 91 94 93 93 94 93 80 81 80 81 81 80 80 80
81 82 84 82 82 82 82 81 82 83 84 84 85 85 83 86 84 86 86 87 88 88 89 88 87 88 90 93 93 93 93 93 91 90 94 93 81 81 80 81 81 81 80
82 84 83 82 83 81 81 82 83 84 86 85 85 83 83 84 84 84 87 87 89 87 86 88 88 91 92 94 91 93 94 92 93 90 91 92 91 80 81 81 81 81 81
83 81 82 85 83 82 81 82 84 84 85 85 86 86 84 84 83 84 87 88 88 88 89 89 90 91 91 92 91 93 94 92 91 90 91 92 92 93 86 80 80 80 81
83 81 81 82 83 82 81 82 83 83 84 86 86 86 84 85 85 85 89 89 86 89 89 89 90 88 89 91 94 94 93 93 91 95 90 90 91 91 92 86 80 80 81
84 83 82 82 82 81 82 81 83 83 84 86 86 86 85 86 85 85 88 87 87 88 89 89 86 89 88 89 93 93 93 94 93 92 92 93 94 91 92 90 90 90 81
85 82 81 80 80 81 81 80 81 81 83 84 86 85 84 85 86 85 88 88 88 87 87 86 87 86 90 90 89 93 94 94 94 95 95 94 93 93 92 90 89 92 92
84 82 81 81 80 80 82 82 83 83 85 86 87 85 86 85 86 86 86 88 87 89 86 86 85 88 90 88 87 87 87 92 95 95 94 94 93 94 94 92 90 89 89
84 82 82 81 81 81 82 83 82 83 84 83 84 86 86 85 86 86 87 87 86 86 89 87 87 85 87 89 85 86 85 84 86 93 91 93 89 93 93 93 92 90 89
85 86 84 82 81 82 81 82 80 83 82 85 85 87 86 86 86 87 86 86 86 88 86 88 89 86 85 87 88 88 84 83 83 84 92 91 91 92 91 94 93 91 89
87 86 85 82 81 82 81 82 82 82 86 87 87 84 84 85 85 87 87 86 86 88 87 86 85 84 87 87 87 87 84 86 82 84 83 87 91 93 93 93 93 94 92
87 86 85 82 80 81 81 81 81 82 83 84 84 85 86 88 88 85 87 86 86 87 86 87 86 85 85 86 87 86 86 85 85 83 82 83 83 88 91 93 94 94 94
MSLP
1015.94 1015.88 1016.00 1016.08 1016.11 1016.17 1016.27 1016.29 1016.47 1016.71 1016.79 1016.85 1017.01 1017.23 1017.45 1017.36 1017.44 1017.44 1017.28 1017.17 1017.30 1017.37 1017.26 1017.36 1017.40 1017.41 1017.45 1017.46 1017.59 1017.62 1017.54 1017.60 1017.68 1017.75 1017.93 1018.12 1018.19 1018.26 1018.31 1018.40 1018.14 1018.12 1018.80
1015.67 1015.86 1016.12 1016.23 1016.24 1016.35 1016.44 1016.59 1016.74 1016.80 1017.00 1017.20 1017.29 1017.50 1017.66 1017.78 1017.83 1017.81 1017.63 1017.61 1017.80 1017.83 1017.74 1017.87 1017.86 1017.89 1017.88 1017.98 1018.04 1017.95 1018.02 1018.06 1018.13 1018.17 1018.20 1018.31 1018.53 1018.58 1018.67 1018.69 1018.72 1018.91 1019.11
1015.72 1015.94 1016.17 1016.41 1016.48 1016.57 1016.68 1016.80 1017.05 1017.20 1017.18 1017.49 1017.66 1017.77 1017.85 1017.99 1017.99 1018.01 1018.05 1018.07 1018.09 1018.10 1018.18 1018.26 1018.28 1018.27 1018.34 1018.44 1018.36 1018.42 1018.43 1018.50 1018.54 1018.57 1018.45 1018.11 1018.45 1018.89 1018.92 1019.00 1019.13 1019.23 1019.33
1015.85 1016.14 1016.32 1016.58 1016.68 1016.79 1016.94 1017.16 1017.27 1017.46 1017.67 1017.80 1017.79 1017.95 1018.17 1018.19 1018.32 1018.32 1018.46 1018.59 1018.51 1018.55 1018.51 1018.56 1018.59 1018.58 1018.79 1018.79 1018.81 1018.94 1018.95 1018.94 1018.99 1018.90 1018.56 1018.43 1018.57 1019.21 1019.23 1019.31 1019.47 1019.58 1019.52
1015.98 1016.24 1016.53 1016.77 1016.94 1017.04 1017.27 1017.36 1017.51 1017.73 1018.01 1018.06 1018.20 1018.17 1018.39 1018.50 1018.63 1018.74 1018.78 1018.85 1018.88 1018.89 1018.94 1018.98 1018.89 1018.90 1019.00 1018.98 1019.10 1019.08 1019.17 1019.31 1019.33 1019.04 1019.13 1019.11 1018.75 1019.46 1019.55 1019.66 1019.72 1019.76 1019.75
1016.26 1016.53 1016.87 1016.97 1017.07 1017.27 1017.54 1017.59 1017.74 1018.05 1018.29 1018.51 1018.54 1018.48 1018.57 1018.73 1018.97 1019.09 1019.10 1019.18 1019.27 1019.26 1019.27 1019.33 1019.31 1019.21 1019.21 1019.26 1019.35 1019.44 1019.55 1019.58 1019.37 1019.28 1019.32 1019.40 1019.25 1019.82 1019.90 1019.99 1020.02 1019.98 1019.93
1016.59 1016.77 1016.99 1017.19 1017.34 1017.56 1017.79 1017.95 1018.13 1018.40 1018.54 1018.70 1018.78 1018.82 1018.94 1019.10 1019.20 1019.30 1019.46 1019.59 1019.55 1019.56 1019.57 1019.62 1019.52 1019.48 1019.42 1019.46 1019.55 1019.69 1019.78 1019.70 1019.34 1019.49 1019.59 1019.52 1019.65 1020.07 1020.11 1020.15 1020.16 1020.14 1020.08
1016.77 1016.98 1017.20 1017.50 1017.62 1017.81 1018.04 1018.21 1018.35 1018.65 1018.79 1018.81 1018.92 1019.15 1019.24 1019.31 1019.45 1019.66 1019.77 1019.86 1019.85 1019.92 1019.79 1019.89 1019.84 1019.78 1019.61 1019.64 1019.81 1019.88 1019.87 1019.86 1019.57 1019.71 1019.65 1019.64 1020.20 1020.17 1020.18 1020.19 1020.18 1020.14 1020.17
1017.13 1017.28 1017.51 1017.58 1017.83 1018.04 1018.25 1018.51 1018.59 1018.79 1019.12 1019.12 1019.11 1019.43 1019.55 1019.64 1019.87 1019.89 1020.03 1020.08 1020.13 1020.09 1020.11 1020.11 1020.06 1019.97 1019.95 1019.96 1020.01 1020.02 1020.08 1020.17 1019.69 1019.83 1019.70 1019.78 1020.42 1020.37 1020.43 1020.45 1020.50 1020.51 1020.48
1017.25 1017.40 1017.62 1017.76 1017.92 1018.06 1018.37 1018.63 1018.91 1019.20 1019.20 1019.31 1019.49 1019.66 1019.72 1019.88 1020.06 1020.23 1020.28 1020.34 1020.31 1020.34 1020.41 1020.33 1020.24 1020.26 1020.17 1020.11 1020.14 1020.16 1020.23 1020.25 1019.82 1019.97 1020.09 1020.20 1020.53 1020.49 1020.54 1020.65 1020.68 1020.71 1020.69
1017.60 1017.67 1017.67 1017.81 1018.18 1018.39 1018.53 1018.82 1019.19 1019.47 1019.65 1019.63 1019.71 1019.92 1020.04 1019.98 1020.04 1020.18 1020.48 1020.49 1020.51 1020.61 1020.57 1020.50 1020.40 1020.35 1020.21 1020.16 1020.18 1020.18 1020.23 1020.02 1019.98 1020.10 1020.15 1020.75 1020.66 1020.66 1020.74 1020.88 1020.89 1020.91 1020.84
1017.53 1017.77 1017.78 1017.88 1018.22 1018.49 1018.53 1018.93 1019.26 1019.55 1019.56 1019.61 1019.88 1020.12 1020.19 1020.37 1020.41 1020.37 1020.58 1020.74 1020.79 1020.79 1020.73 1020.64 1020.52 1020.33 1020.00 1019.62 1019.57 1019.93 1019.77 1020.03 1019.97 1020.14 1020.31 1020.88 1020.86 1020.88 1021.05 1021.10 1021.06 1020.97 1020.97
1017.51 1017.85 1018.07 1018.16 1018.43 1018.45 1018.70 1019.22 1019.30 1019.47 1019.68 1019.89 1020.22 1020.41 1020.53 1020.54 1020.63 1020.55 1020.71 1020.71 1020.84 1020.92 1020.48 1020.40 1020.22 1019.98 1019.94 1019.75 1019.58 1019.56 1019.82 1019.96 1019.92 1020.11 1020.46 1020.83 1020.93 1020.99 1021.14 1021.18 1021.15 1021.11 1021.12
1017.52 1017.81 1018.16 1018.44 1018.57 1018.78 1018.96 1019.29 1019.50 1019.50 1019.82 1019.91 1020.20 1020.56 1020.67 1020.59 1020.77 1020.90 1020.95 1021.15 1021.08 1020.94 1020.85 1020.66 1020.30 1020.21 1019.92 1019.85 1019.73 1019.58 1019.66 1019.85 1020.02 1020.10 1020.36 1020.79 1020.94 1021.01 1021.02 1021.13 1021.16 1021.14 1021.18
1017.60 1017.78 1018.16 1018.46 1018.72 1018.89 1019.12 1019.43 1019.68 1019.68 1019.92 1020.05 1020.36 1020.69 1020.70 1020.76 1020.94 1021.07 1021.19 1021.20 1021.24 1021.14 1020.84 1020.67 1020.50 1020.27 1020.05 1019.66 1019.49 1019.60 1019.52 1019.76 1019.94 1020.06 1020.14 1020.71 1020.84 1020.97 1020.96 1021.01 1021.11 1021.16 1021.17
1017.44 1017.79 1018.19 1018.56 1018.79 1018.99 1019.10 1019.43 1019.64 1019.87 1020.15 1020.39 1020.48 1020.63 1020.90 1020.94 1021.11 1021.07 1021.11 1021.17 1021.23 1021.12 1020.92 1020.83 1020.68 1020.32 1019.99 1019.57 1019.41 1019.55 1019.55 1019.62 1019.82 1019.99 1019.92 1020.05 1020.64 1020.79 1020.88 1020.91 1020.94 1020.93 1020.99
1017.18 1017.64 1018.01 1018.46 1018.72 1019.03 1019.24 1019.42 1019.60 1019.77 1020.06 1020.26 1020.44 1020.80 1020.95 1021.05 1021.15 1021.17 1021.03 1021.11 1021.10 1021.11 1021.12 1020.85 1020.60 1020.11 1019.78 1019.54 1019.62 1019.51 1019.52 1019.59 1019.55 1019.83 1019.92 1019.88 1019.94 1020.46 1020.58 1020.69 1020.75 1020.72 1020.68
1016.86 1017.47 1017.92 1018.17 1018.54 1018.91 1019.21 1019.45 1019.50 1019.66 1019.92 1020.13 1020.30 1020.58 1020.87 1021.00 1021.15 1021.12 1021.00 1021.00 1021.10 1021.08 1020.91 1020.69 1020.38 1020.21 1019.97 1019.79 1019.69 1019.51 1019.34 1019.48 1019.54 1019.71 1019.73 1019.72 1019.73 1019.71 1019.96 1020.32 1020.40 1020.40 1020.35
1016.56 1017.26 1017.78 1018.11 1018.39 1018.80 1019.21 1019.43 1019.59 1019.73 1019.83 1019.87 1020.14 1020.35 1020.63 1020.85 1020.99 1021.08 1020.95 1020.97 1021.21 1021.00 1020.92 1020.78 1020.60 1020.54 1020.21 1019.96 1019.54 1019.32 1019.32 1019.30 1019.30 1019.16 1019.46 1019.59 1019.63 1019.70 1019.51 1019.57 1019.93 1019.94 1019.96
1016.23 1016.93 1017.55 1017.98 1018.26 1018.60 1018.94 1019.40 1019.49 1019.59 1019.67 1019.74 1019.93 1020.15 1020.53 1020.70 1020.94 1021.11 1020.92 1020.99 1021.12 1021.02 1021.00 1020.89 1020.95 1020.81 1020.72 1020.35 1019.71 1019.26 1019.20 1019.11 1019.13 1019.22 1019.19 1019.21 1019.16 1019.37 1019.31 1019.21 1019.12 1018.96 1019.36
1015.89 1016.63 1017.09 1017.65 1018.04 1018.45 1018.73 1018.95 1019.20 1019.21 1019.42 1019.52 1019.64 1020.02 1020.39 1020.61 1020.77 1020.99 1020.78 1020.83 1021.02 1021.16 1021.19 1021.18 1021.10 1021.03 1020.56 1020.48 1020.01 1019.17 1019.04 1019.10 1019.06 1018.97 1018.91 1018.93 1018.90 1018.94 1019.00 1018.94 1018.96 1018.70 1018.45
1015.10 1015.77 1016.53 1017.04 1017.59 1018.01 1018.29 1018.49 1018.72 1018.81 1018.95 1019.01 1019.25 1019.66 1020.06 1020.37 1020.60 1020.71 1020.77 1020.63 1020.85 1020.92 1021.15 1021.21 1021.29 1020.94 1020.80 1020.82 1020.34 1019.87 1019.03 1018.86 1018.85 1018.90 1018.94 1018.93 1018.88 1018.80 1018.61 1018.63 1018.63 1018.57 1018.41
1014.38 1015.05 1015.67 1016.26 1016.89 1017.38 1017.79 1018.22 1018.46 1018.62 1018.78 1018.91 1019.11 1019.31 1019.57 1020.06 1020.27 1020.42 1020.47 1020.57 1020.77 1020.88 1020.81 1021.03 1021.08 1021.13 1020.69 1020.77 1020.94 1020.53 1019.62 1019.32 1019.32 1018.96 1018.93 1018.89 1019.00 1018.74 1018.45 1018.32 1018.31 1018.23 1018.06
1013.34 1013.99 1014.80 1015.53 1016.16 1016.85 1017.36 1017.64 1017.75 1017.66 1017.91 1018.14 1018.55 1018.87 1019.12 1019.68 1019.93 1020.06 1020.25 1020.42 1020.49 1020.42 1020.67 1020.66 1020.66 1020.92 1020.98 1020.61 1020.81 1020.81 1020.90 1020.76 1019.98 1019.06 1018.85 1018.91 1018.97 1018.65 1018.46 1018.06 1017.93 1017.76 1017.63
1012.55 1013.25 1013.96 1014.75 1015.48 1016.14 1016.74 1016.96 1017.25 1017.33 1017.38 1017.82 1018.22 1018.59 1018.91 1019.25 1019.66 1019.78 1020.03 1020.23 1020.25 1020.18 1020.26 1020.55 1020.71 1020.87 1020.81 1020.75 1020.69 1020.71 1020.75 1020.63 1020.65 1020.13 1019.18 1018.89 1018.78 1018.61 1018.36 1018.05 1017.92 1017.52 1017.36
1011.69 1012.49 1013.25 1014.03 1014.66 1015.44 1016.07 1016.50 1016.75 1016.80 1017.12 1017.44 1017.81 1018.05 1018.30 1018.61 1018.85 1019.28 1019.55 1019.85 1019.94 1019.97 1020.17 1020.20 1020.30 1020.57 1020.72 1020.80 1020.78 1020.78 1020.53 1020.37 1020.17 1020.25 1019.84 1019.39 1019.10 1018.51 1018.35 1017.91 1017.61 1017.39 1017.19
Wind_Speed
6 7 5 9 8 9 9 10 10 10 11 12 13 13 12 11 12 12 13 15 15 15 16 16 15 15 14 14 15 14 15 15 15 15 15 14 13 13 13 12 7 14 12
11 9 7 8 8 8 8 10 10 11 11 11 14 12 13 11 13 12 14 14 15 14 16 15 13 15 14 14 14 15 15 15 14 13 12 14 14 13 12 13 12 12 12
12 9 9 7 8 8 8 9 11 13 14 16 13 12 12 12 12 12 13 13 14 15 15 14 14 14 13 12 14 14 14 13 13 12 9 9 11 11 12 13 12 12 12
12 9 8 8 7 8 8 8 9 14 15 15 11 13 12 12 12 13 12 13 13 13 13 12 13 13 11 9 9 11 13 12 11 10 7 7 9 10 11 11 10 10 10
12 9 8 9 8 8 8 7 9 12 14 13 12 10 10 12 12 13 14 14 12 12 12 12 13 13 12 13 13 6 10 11 10 7 8 7 6 10 10 8 9 8 8
11 9 10 9 8 8 8 7 8 9 10 10 9 10 10 12 13 12 13 12 10 10 11 10 11 11 11 11 12 11 10 9 7 8 7 8 8 9 9 9 10 10 9
12 10 10 9 9 7 8 7 7 7 9 8 9 9 11 12 12 12 10 11 9 9 9 9 11 11 9 10 10 10 9 8 7 7 6 6 8 7 7 7 7 7 7
11 10 9 7 8 8 7 7 7 7 7 8 9 10 10 9 11 10 11 10 10 9 9 9 10 11 11 10 8 8 9 7 7 7 7 6 10 7 7 6 9 9 7
9 9 8 8 8 8 7 7 7 8 9 8 9 9 8 9 9 11 9 10 9 9 8 7 9 11 10 7 7 8 9 7 6 6 6 4 8 7 7 7 7 8 8
9 8 7 7 7 7 8 8 7 8 7 6 7 8 8 8 10 10 7 8 9 8 6 7 9 7 7 7 5 6 8 4 7 5 5 6 4 6 6 7 7 7 7
8 8 7 8 7 7 6 6 6 7 7 7 6 7 7 5 6 6 8 8 8 6 6 7 6 5 5 4 3 4 1 4 5 4 4 5 4 5 6 6 6 7 7
10 9 7 8 8 7 6 5 5 6 4 3 4 5 3 5 4 5 6 6 5 6 6 5 5 5 4 4 2 2 3 3 3 4 4 2 3 4 4 5 6 6 6
11 8 8 8 8 8 6 4 4 3 3 3 5 3 4 3 3 3 3 3 2 4 2 3 4 5 6 5 4 3 1 0 2 2 4 0 1 1 2 3 4 4 4
12 12 11 9 8 7 5 5 4 4 3 3 3 3 2 2 2 2 2 2 1 2 4 4 4 6 6 6 5 4 2 1 0 1 3 2 2 2 2 1 1 1 2
13 13 12 10 9 7 7 5 4 4 4 3 3 3 2 2 2 1 1 1 2 2 3 4 5 5 5 6 4 2 2 2 3 2 1 3 5 4 5 4 3 4 4
13 12 11 11 9 8 6 7 5 4 4 4 3 3 4 2 1 2 1 1 1 2 3 4 4 4 5 5 5 3 1 2 5 4 3 3 6 7 8 8 7 7 7
13 13 12 11 10 9 8 7 6 5 5 4 4 4 4 4 3 2 1 1 2 3 4 3 4 4 5 4 4 3 2 3 5 6 5 4 4 9 11 11 10 10 10
13 14 12 11 11 11 8 7 6 5 5 4 5 4 5 5 4 3 1 1 3 4 4 4 5 6 5 4 4 4 3 4 5 6 6 5 5 5 6 12 12 12 13
14 14 13 13 13 12 9 7 7 6 6 5 5 5 5 5 5 4 1 1 3 4 4 4 4 5 5 5 6 4 4 4 4 5 7 7 7 7 5 5 11 13 15
14 14 13 12 12 12 8 6 5 5 5 5 5 5 6 5 5 4 3 3 3 3 3 3 5 5 5 5 7 5 3 3 3 4 5 5 6 7 7 8 7 7 14
14 14 15 14 13 10 9 8 7 7 6 6 6 7 6 6 6 5 3 3 2 3 3 3 4 4 4 5 5 4 1 2 1 2 3 4 4 5 6 6 5 5 5
17 17 15 15 14 12 9 8 6 7 7 6 6 7 8 8 7 6 5 3 3 3 3 2 3 3 2 4 4 3 3 2 1 2 3 3 4 4 4 5 6 7 7
18 18 17 16 15 14 13 8 6 6 3 6 6 6 7 8 8 8 6 4 4 4 3 2 1 2 4 2 4 4 3 3 5 1 2 3 4 5 4 4 6 6 7
20 19 18 16 16 14 14 11 13 9 9 7 7 7 6 8 8 9 8 7 5 4 4 2 2 2 2 3 0 1 2 2 3 4 1 2 4 5 6 6 5 6 5
20 18 18 17 16 15 15 14 12 11 8 8 7 9 9 7 8 9 8 7 6 5 3 4 4 3 3 3 2 1 1 2 2 3 7 6 6 5 4 5 5 4 4
19 19 18 17 16 16 16 17 15 13 11 9 9 9 8 8 8 10 10 8 6 5 5 5 4 5 4 3 3 3 4 4 5 4 6 8 8 6 7 4 3 3 2
Wind_Direction
138 136 129 118 105 101 103 105 117 135 134 124 127 123 111 97 91 92 89 86 89 86 87 86 90 87 83 81 81 78 76 79 81 81 74 79 81 83 80 81 108 90 90
143 144 145 133 120 110 101 94 98 111 121 122 127 119 106 95 95 89 87 87 89 91 92 94 91 87 80 78 78 72 68 64 68 74 75 85 76 72 72 78 57 76 82
139 144 148 133 133 118 106 98 97 96 107 108 112 115 110 107 102 91 90 96 97 94 93 90 89 86 82 80 75 77 70 67 64 58 56 67 78 73 76 78 81 86 91
138 142 144 133 132 124 107 99 96 101 104 117 107 105 106 102 98 95 100 93 97 92 92 90 83 77 73 73 86 90 72 69 67 60 61 58 84 75 82 81 80 81 90
141 146 141 139 135 132 113 102 92 96 105 107 108 101 101 100 103 93 95 92 88 87 81 78 77 75 69 67 69 90 74 73 72 72 71 53 53 78 77 76 92 89 60
137 139 136 140 132 131 120 104 101 102 107 106 111 122 108 103 94 89 88 88 84 76 76 70 70 69 66 78 74 73 75 77 73 70 66 82 61 65 64 65 69 66 76
142 140 143 140 141 134 130 129 121 113 109 116 112 106 93 93 88 88 89 85 80 74 72 66 63 55 63 87 78 70 72 70 64 70 71 57 63 58 64 70 72 78 80
144 146 146 136 134 135 138 140 137 125 127 122 111 98 92 87 93 93 86 85 80 79 79 68 60 57 61 91 83 78 65 44 65 63 63 58 34 54 68 71 67 69 69
148 150 151 153 146 141 141 140 150 137 126 123 115 107 102 102 98 87 89 89 88 81 77 72 60 56 61 98 90 75 69 61 62 63 66 70 49 49 56 58 58 59 59
160 158 162 158 149 156 151 153 151 135 130 130 126 117 113 102 93 86 104 85 77 75 73 61 53 48 51 65 100 85 77 79 60 70 67 63 52 66 67 67 66 69 72
164 170 173 166 158 148 153 141 142 136 137 137 139 114 108 99 102 109 71 76 68 65 54 47 38 24 25 73 71 87 35 52 55 61 61 61 57 66 72 78 79 75 74
174 181 184 175 162 157 159 145 143 146 160 145 101 94 118 99 87 84 83 70 58 48 41 23 10 345 307 351 2 185 16 57 51 62 65 34 49 64 71 72 75 72 71
178 182 186 182 175 170 155 158 155 153 146 140 101 89 93 109 93 103 100 92 69 50 22 359 352 355 346 338 332 327 353 95 50 66 81 135 39 38 70 67 58 64 71
186 187 183 188 184 181 168 169 160 173 165 182 134 122 131 150 130 90 82 74 65 35 1 359 346 343 342 338 328 303 261 258 60 8 102 221 216 267 286 339 355 356 12
193 191 187 183 187 188 180 165 177 190 183 184 184 154 191 156 136 144 111 71 37 360 0 345 335 334 339 345 356 341 242 230 241 268 275 208 239 244 262 265 265 277 286
194 196 190 193 191 195 199 189 186 198 193 206 208 202 209 246 206 193 155 96 40 347 343 327 323 329 338 347 9 358 309 235 226 243 255 227 236 247 255 260 260 258 263
194 195 196 199 195 200 210 207 205 204 200 210 215 223 245 253 230 238 101 352 7 341 316 318 311 333 335 336 339 316 293 273 249 241 251 259 227 224 246 256 261 263 261
190 195 196 197 196 202 210 212 215 212 207 219 217 219 237 247 243 236 210 358 352 317 338 340 349 342 344 351 343 328 314 277 262 247 251 258 255 273 223 240 249 254 260
191 188 195 197 198 201 206 211 216 216 222 223 223 227 214 232 241 253 259 309 328 317 324 334 344 340 339 343 325 326 306 279 271 256 258 260 262 266 272 233 239 249 253
192 191 193 198 201 197 197 202 216 224 227 220 211 219 209 220 222 231 256 287 306 298 295 344 351 351 327 342 325 331 316 300 289 269 278 271 270 269 267 266 267 249 236
198 195 195 195 198 195 193 197 207 219 216 217 210 207 205 214 214 218 240 247 241 266 321 351 346 341 347 359 315 341 352 360 322 292 303 288 281 274 276 267 266 269 260
202 201 197 201 196 199 198 194 206 205 213 213 203 197 204 208 213 223 238 245 276 268 261 319 342 328 331 17 342 309 345 183 32 308 334 333 334 326 296 273 281 271 269
205 202 202 199 200 201 201 191 186 183 200 194 197 202 201 206 211 215 218 238 251 246 257 252 258 281 334 23 16 329 315 358 329 7 351 328 341 328 322 297 289 291 277
208 204 203 199 197 201 195 191 199 197 200 205 203 204 204 205 210 212 221 230 235 236 225 231 203 260 263 322 267 41 28 342 333 317 328 339 322 325 333 319 316 306 296
206 204 204 196 197 198 194 201 197 208 203 198 205 205 208 203 216 221 224 238 243 240 237 239 208 222 225 281 277 273 258 243 196 296 312 323 322 332 327 333 325 352 17
204 204 203 196 195 195 197 202 206 203 203 203 202 206 210 211 208 215 220 228 242 254 251 241 231 221 231 248 264 263 287 310 321 308 303 316 313 314 318 308 304 298 314